Location: *
(43.9905°S, 176.4941°W)
Time: 04:37:48
(UTC+00:00)

USA 32 - Pass Details

Date: 08 December 2019
Orbit: 777 x 783 km, 85.0° (Epoch: 17 January)

Event Time Altitude Azimuth Distance (km) Brightness Sun altitude
Rises 09:35:22 0° 181° (S) 3,309 8.4 -17.7°
Reaches altitude 10° 09:37:48 10° 177° (S) 2,374 7.4 -17.9°
Maximum altitude 09:43:02 55° 98° (E) 952 4.3 -18.3°
Enters shadow 09:45:09 34° 38° (NE) 1,294 4.6 -18.5°
